Location: Alafon
(8.4500°N, 4.2333°E)
Time: 23:20:54
(UTC+00:00)

Explorer 7 - Pass Details

Date: 25 July 2021
Orbit: 484 x 676 km, 50.3° (Epoch: 18 September)

Event Time Altitude Azimuth Distance (km) Brightness Sun altitude
Rises 04:36:46 0° 215° (SW) 2,536 - -14.0°
Reaches altitude 10° 04:38:55 10° 214° (SW) 1,653 - -13.5°
Exits shadow 04:39:53 17° 213° (SSW) 1,269 8.2 -13.3°
Maximum altitude 04:42:38 81° 128° (SE) 492 6.6 -12.7°
Drops below altitude 10° 04:46:24 10° 40° (NE) 1,676 10.3 -11.8°
Sets 04:48:36 0° 39° (NE) 2,576 11.4 -11.3°
